2023/08/22 00:00:00, 0.0,22.6
2023/08/22 00:10:00, 0.0,22.6
2023/08/22 00:20:00, 0.1,22.9
2023/08/22 00:30:00, 0.0,22.7
2023/08/22 00:40:00, 0.0,22.9
2023/08/22 00:50:00, 0.0,22.5
2023/08/22 01:00:00, 0.0,22.9
2023/08/22 01:10:00, 0.0,22.6
2023/08/22 01:20:00, 0.0,22.4
2023/08/22 01:30:00, 0.0,22.7
2023/08/22 01:40:00, 0.0,22.5
2023/08/22 01:50:00, 0.0,22.6
2023/08/22 02:00:00, 0.0,22.6
2023/08/22 02:10:00, 0.0,22.7
2023/08/22 02:20:00, 0.0,22.5
2023/08/22 02:30:00, 0.0,22.6
2023/08/22 02:40:00, 0.0,22.6
2023/08/22 02:50:00, 0.0,22.6
2023/08/22 03:00:00, 0.0,22.7
2023/08/22 03:10:00, 0.0,22.6
2023/08/22 03:20:00, 0.0,22.6
2023/08/22 03:30:00, 0.0,22.6
2023/08/22 03:40:00, 0.0,22.4
2023/08/22 03:50:00, 0.0,22.9
2023/08/22 04:00:00, 0.0,22.3
2023/08/22 04:10:00, 0.0,22.4
2023/08/22 04:20:00, 0.0,22.3
2023/08/22 04:30:00, 0.0,22.3
2023/08/22 04:40:00, 0.1,22.3
2023/08/22 04:50:00, 0.1,22.3
2023/08/22 05:00:00, 0.1,22.4
2023/08/22 05:10:00, 0.1,22.1
2023/08/22 05:20:00, 0.1,22.1
2023/08/22 05:30:00, 0.1,22.1
2023/08/22 05:40:00, 0.1,22.3
2023/08/22 05:50:00, 0.1,22.1
2023/08/22 06:00:00, 0.1,22.2
2023/08/22 06:10:00, 0.2,22.1
2023/08/22 06:20:00, 0.2,22.6
2023/08/22 06:30:00, 0.2,22.3
2023/08/22 06:40:00, 0.2,22.3
2023/08/22 06:50:00, 0.2,22.4
2023/08/22 07:00:00, 0.1,22.4
2023/08/22 07:10:00, 0.0,23.5
2023/08/22 07:20:00, 0.0,24.1
2023/08/22 07:30:00, 0.1,25.3
2023/08/22 07:40:00, 0.1,24.8
2023/08/22 07:50:00, 0.0,24.8
2023/08/22 08:00:00, 0.0,25.5
2023/08/22 08:10:00, 0.1,25.7
2023/08/22 08:20:00, 0.0,26.2
2023/08/22 08:30:00, 0.0,26.3
2023/08/22 08:40:00, 0.0,27.1
2023/08/22 08:50:00, 0.0,27.4
2023/08/22 09:00:00, 0.0,28.4
2023/08/22 09:10:00, 0.1,28.5
2023/08/22 09:20:00, 0.1,29.0
2023/08/22 09:30:00, 0.1,29.7
2023/08/22 09:40:00, 0.2,30.2
2023/08/22 09:50:00, 0.1,31.8
2023/08/22 10:00:00, 0.2,32.8
2023/08/22 10:10:00, 0.2,32.6
2023/08/22 10:20:00, 0.2,32.8
2023/08/22 10:30:00, 0.2,32.7
2023/08/22 10:40:00, 0.2,32.1
2023/08/22 10:50:00, 0.2,31.9
2023/08/22 11:00:00, 0.2,31.9
2023/08/22 11:10:00, 0.2,32.5
2023/08/22 11:20:00, 0.1,32.4
2023/08/22 11:30:00, 0.1,33.8
2023/08/22 11:40:00, 0.2,32.6
2023/08/22 11:50:00, 0.2,32.8
2023/08/22 12:00:00, 0.2,32.8
2023/08/22 12:10:00, 0.2,33.8
2023/08/22 12:20:00, 0.2,33.6
2023/08/22 12:30:00, 0.2,34.1
2023/08/22 12:40:00, 0.2,33.7
2023/08/22 12:50:00, 0.2,33.3
2023/08/22 13:00:00, 0.2,34.8
2023/08/22 13:10:00, 0.2,34.5
2023/08/22 13:20:00, 0.2,34.8
2023/08/22 13:30:00, 0.2,33.9
2023/08/22 13:40:00, 0.3,33.2
2023/08/22 13:50:00, 0.2,32.6
2023/08/22 14:00:00, 0.2,32.8
2023/08/22 14:10:00, 0.2,32.1
2023/08/22 14:20:00, 0.2,32.5
2023/08/22 14:30:00, 0.2,31.9
2023/08/22 14:40:00, 0.2,32.5
2023/08/22 14:50:00, 0.2,32.6
2023/08/22 15:00:00, 0.1,33.2
2023/08/22 15:10:00, 0.2,33.7
2023/08/22 15:20:00, 0.2,32.7
2023/08/22 15:30:00, 0.2,32.0
2023/08/22 15:40:00, 0.2,30.7
2023/08/22 15:50:00, 0.2,31.6
2023/08/22 16:00:00, 0.2,32.8
2023/08/22 16:10:00, 0.1,32.9
2023/08/22 16:20:00, 0.2,32.6
2023/08/22 16:30:00, 0.2,32.8
2023/08/22 16:40:00, 0.2,33.4
2023/08/22 16:50:00, 0.2,34.1
2023/08/22 17:00:00, 0.3,32.3
2023/08/22 17:10:00, 0.3,31.9
2023/08/22 17:20:00, 0.2,31.8
2023/08/22 17:30:00, 0.3,31.2
2023/08/22 17:40:00, 0.2,31.1
2023/08/22 17:50:00, 0.2,30.7
2023/08/22 18:00:00, 0.0,30.1
2023/08/22 18:10:00, 0.0,29.8
2023/08/22 18:20:00, 0.0,29.5
2023/08/22 18:30:00, 0.0,29.4
2023/08/22 18:40:00, 0.0,28.4
2023/08/22 18:50:00, 0.0,28.2
2023/08/22 19:00:00, 0.0,27.9
2023/08/22 19:10:00, 0.0,28.1
2023/08/22 19:20:00, 0.0,27.8
2023/08/22 19:30:00, 0.0,27.3
2023/08/22 19:40:00, 0.0,27.3
2023/08/22 19:50:00, 0.1,27.2
2023/08/22 20:00:00, 0.0,27.4
2023/08/22 20:10:00, 0.0,27.2
2023/08/22 20:20:00, 0.0,27.7
2023/08/22 20:30:00, 0.1,27.6
2023/08/22 20:40:00, 0.1,27.6
2023/08/22 20:50:00, 0.0,27.4
2023/08/22 21:00:00, 0.0,27.2
2023/08/22 21:10:00, 0.0,27.2
2023/08/22 21:20:00, 0.0,27.1
2023/08/22 21:30:00, 0.0,27.0
2023/08/22 21:40:00, 0.0,26.9
2023/08/22 21:50:00, 0.0,26.9
2023/08/22 22:00:00, 0.0,26.7
2023/08/22 22:10:00, 0.0,26.6
2023/08/22 22:20:00, 0.0,26.6
2023/08/22 22:30:00, 0.0,26.6
2023/08/22 22:40:00, 0.0,26.5
2023/08/22 22:50:00, 0.0,26.4
2023/08/22 23:00:00, 0.0,25.6
2023/08/22 23:10:00, 0.0,25.3
2023/08/22 23:20:00, 0.0,25.0
2023/08/22 23:30:00, 0.0,24.7
2023/08/22 23:40:00, 0.1,24.6
2023/08/22 23:50:00, 0.0,24.4
